Regional Weather Roundup
Issued by NWS Lake Charles, LA

Home | Current Version | Previous Version | Text Only | Print | Product List | Glossary On
Versions: 1 2 3 4 5 6 7 8 9 10 11 12 13 14 15 16 17 18 19 20 21 22 23 24 25 26 27
000
ASUS44 KLCH 210110
RWRLCH
REGIONAL WEATHER ROUNDUP
NATIONAL WEATHER SERVICE LAKE CHARLES LA
700 PM CST FRI JAN 20 2017

Note: "fair" indicates few or no clouds below 12,000 feet with no
significant weather and/or obstructions to visibility.


ACROSS SOUTHEAST TEXAS

CITY           SKY/WX    TMP DP  RH WIND       PRES   REMARKS
BEAUMONT       CLOUDY    68  65  90 SE10      29.68F
BEAUMONT CITY  TSTM      70  66  88 CALM      29.71R
ORANGE         CLOUDY    67  65  93 SE9       29.72F
JASPER           N/A     67  64  87 CALM      29.74R
$$

ACROSS CENTRAL LOUISIANA

CITY           SKY/WX    TMP DP  RH WIND       PRES   REMARKS
LEESVILLE      MOCLDY    68  60  77 SE7       29.71S
FULLERTON      FAIR      67  60  78 CALM      29.70S
ALEXANDRIA INT MOCLDY    66  60  81 SE7       29.71R
ESLER FIELD    CLOUDY    67  60  78 S6        29.73S
DERIDDER       FAIR      69  60  74 CALM      29.74R
OAKDALE        MOCLDY    67  63  86 S3        29.73S
OPELOUSAS      FAIR      64  60  87 S3        29.76R
$$

ACROSS SOUTHWEST AND SOUTH CENTRAL LOUISIANA

CITY           SKY/WX    TMP DP  RH WIND       PRES   REMARKS
SULPHUR        CLOUDY    67  67  98 SE3       29.74F
LAKE CHARLES   CLOUDY    68  66  93 S5        29.73F
CHENNAULT INT  MOCLDY    68  66  94 S5        29.74S
CAMERON PHI    FOG       66  66 100 E8        29.72F VSB 1/4
DEQUINCY       FAIR      67  65  93 SE7       29.73S
JENNINGS       MOCLDY    70  66  88 S6        30.02S
LAFAYETTE      CLOUDY    71  68  90 S6        29.76R
NEW IBERIA     CLOUDY    68  64  87 SE5       29.77R
ABBEVILLE      FAIR      68  68 100 SE5       29.76S FOG
PATTERSON      CLOUDY    70  68  93 S6        29.77S
SALT POINT     NOT AVBL
$$

SELECTED SITES ACROSS THE REGION

CITY           SKY/WX    TMP DP  RH WIND       PRES   REMARKS
HOUSTON BUSH   TSTM      67  65  93 SE13      29.68F FOG
HOUSTON HOBBY  TSTM      65  64  97 CALM      29.69R
GALVESTON      CLOUDY    70  69  97 E9        29.69R FOG
COLLEGE STAT   CLOUDY    66  56  70 E5        29.68S
CONROE         PTCLDY    62  61  96 E3        29.68S FOG
HUNTSVILLE     MOCLDY    59  57  93 CALM      29.68F
LUFKIN         CLOUDY    65  56  72 W6        29.71R THUNDER
SHREVEPORT     MOCLDY    64  55  72 S6        29.67S
MONROE         CLOUDY    66  53  63 SE5       29.71S
NATCHEZ MS     PTCLDY    64  52  63 SE6       29.75S
BATON ROUGE    CLOUDY    70  60  70 CALM      29.75S
N.O. INTL ARPT CLOUDY    71  67  87 S8        29.78S
SLIDELL        PTCLDY    70  68  93 S6        29.78R
$$

MARINE REPORTS

STATION/POSITION TIME  SKY/WX   TEMP    WIND        PRES    VSBY
                                AIR SEA DIR/SP/G
                 (UTC)          (F)     (DEG/KT/KT) (MB)    (MI)
BUOY 30 S HIGH I 2350            67 67   90/ 10/ 10 1005.5
WVE H/P(F/S)=  2/ 7

SEA RIM ST PARK  0100            65     100/  9/ 11 1006.2F
PORT ARTHUR      0042               65  120/  7/  8   N/A
SABINE PASS N    0042            65 67   70/  6/  7   N/A
TEXAS POINT      NOT AVBL
CALCASIEU PASS   0042            66 65  110/  9/ 11   N/A
LK CHARLES BEACH 0042            69 65                N/A
MARSH ISLAND     NOT AVBL
FRESH WATER LOCK 0042            67 67  120/  7/  9   N/A
AMERADA PASS     0042            68 55  140/  4/  5   N/A
$$




USA.gov is the U.S. government's official web portal to all federal, state and local government web resources and services.